Location: Cold Norton
(51.6667°N, 0.6667°E)
Time: 07:22:47
(UTC+00:00)

Cosmos 1400 Rocket - Pass Details

Date: 18 November 2025
Orbit: 476 x 513 km, 81.1° (Epoch: 12 December)

Event Time Altitude Azimuth Distance (km) Brightness Sun altitude
Rises 17:05:03 0° 146° (SE) 2,620 6.1 -9.5°
Reaches altitude 10° 17:07:54 10° 122° (ESE) 1,734 5.0 -9.9°
Maximum altitude 17:10:05 15° 87° (E) 1,452 4.4 -10.2°
Enters shadow 17:10:33 15° 79° (ENE) 1,466 4.3 -10.3°
